Time,TemperatureF,DewpointF,PressureIn,WindDirection,WindDirectionDegrees,WindSpeedMPH,WindSpeedGustMPH,Humidity,HourlyPrecipIn,Conditions,Clouds,dailyrainin,SoftwareType,DateUTC
2013-09-07 00:06:00,44.5,42.0,30.11,SE,144,0.0,1.0,92,0.00,,,0.00,weatherlink.com 1.10,2013-09-07 04:06:00,
2013-09-07 00:27:00,44.0,42.0,30.12,SE,144,0.0,0.0,93,0.00,,,0.00,weatherlink.com 1.10,2013-09-07 04:27:00,
2013-09-07 00:36:00,43.7,42.0,30.12,SE,144,0.0,1.0,93,0.00,,,0.00,weatherlink.com 1.10,2013-09-07 04:36:00,
2013-09-07 00:51:00,43.6,42.0,30.12,SE,144,0.0,0.0,94,0.00,,,0.00,weatherlink.com 1.10,2013-09-07 04:51:00,
2013-09-07 01:06:00,43.6,42.0,30.12,SE,144,0.0,0.0,93,0.00,,,0.00,weatherlink.com 1.10,2013-09-07 05:06:00,
2013-09-07 01:21:00,43.5,42.0,30.11,SE,144,0.0,1.0,94,0.00,,,0.00,weatherlink.com 1.10,2013-09-07 05:21:00,
2013-09-07 01:36:00,43.3,42.0,30.11,SE,144,2.0,2.0,93,0.00,,,0.00,weatherlink.com 1.10,2013-09-07 05:36:00,
2013-09-07 01:51:00,43.3,42.0,30.10,SE,144,0.0,1.0,94,0.00,,,0.00,weatherlink.com 1.10,2013-09-07 05:51:00,
2013-09-07 02:06:00,43.1,41.0,30.10,SE,144,0.0,1.0,93,0.00,,,0.00,weatherlink.com 1.10,2013-09-07 06:06:00,
2013-09-07 02:21:00,42.6,41.0,30.11,SE,144,0.0,1.0,93,0.00,,,0.00,weatherlink.com 1.10,2013-09-07 06:21:00,
2013-09-07 02:36:00,42.3,41.0,30.10,SE,144,0.0,0.0,94,0.00,,,0.00,weatherlink.com 1.10,2013-09-07 06:36:00,
2013-09-07 02:51:00,42.3,41.0,30.09,SE,144,0.0,1.0,94,0.00,,,0.00,weatherlink.com 1.10,2013-09-07 06:51:00,
2013-09-07 03:06:00,42.2,41.0,30.10,SE,144,0.0,2.0,94,0.00,,,0.00,weatherlink.com 1.10,2013-09-07 07:06:00,
2013-09-07 03:21:00,42.1,41.0,30.10,SE,144,0.0,0.0,94,0.00,,,0.00,weatherlink.com 1.10,2013-09-07 07:21:00,
2013-09-07 03:36:00,41.8,40.0,30.10,SE,144,0.0,1.0,94,0.00,,,0.00,weatherlink.com 1.10,2013-09-07 07:36:00,
2013-09-07 03:51:00,41.5,40.0,30.09,SE,144,0.0,0.0,94,0.00,,,0.00,weatherlink.com 1.10,2013-09-07 07:51:00,
2013-09-07 04:06:00,41.3,40.0,30.10,SE,144,0.0,1.0,94,0.00,,,0.00,weatherlink.com 1.10,2013-09-07 08:06:00,
2013-09-07 04:21:00,41.1,40.0,30.09,SE,144,0.0,0.0,95,0.00,,,0.00,weatherlink.com 1.10,2013-09-07 08:21:00,
2013-09-07 04:37:00,41.1,40.0,30.08,SE,144,0.0,0.0,95,0.00,,,0.00,weatherlink.com 1.10,2013-09-07 08:37:00,
2013-09-07 04:51:00,41.0,40.0,30.08,SE,144,0.0,2.0,95,0.00,,,0.00,weatherlink.com 1.10,2013-09-07 08:51:00,
2013-09-07 05:06:00,40.9,40.0,30.07,SE,144,1.0,1.0,95,0.00,,,0.00,weatherlink.com 1.10,2013-09-07 09:06:00,
2013-09-07 05:21:00,40.7,39.0,30.08,SE,144,0.0,2.0,94,0.00,,,0.00,weatherlink.com 1.10,2013-09-07 09:21:00,
2013-09-07 05:36:00,40.5,39.0,30.08,SE,144,0.0,1.0,95,0.00,,,0.00,weatherlink.com 1.10,2013-09-07 09:36:00,
2013-09-07 05:51:00,40.6,39.0,30.09,SE,144,0.0,0.0,95,0.00,,,0.00,weatherlink.com 1.10,2013-09-07 09:51:00,
2013-09-07 06:06:00,40.6,39.0,30.07,SE,144,0.0,2.0,95,0.00,,,0.00,weatherlink.com 1.10,2013-09-07 10:06:00,
2013-09-07 06:21:00,40.6,39.0,30.09,South,170,1.0,2.0,95,0.00,,,0.00,weatherlink.com 1.10,2013-09-07 10:21:00,
2013-09-07 06:36:00,40.4,39.0,30.09,South,170,0.0,2.0,95,0.00,,,0.00,weatherlink.com 1.10,2013-09-07 10:36:00,
2013-09-07 06:51:00,40.6,39.0,30.08,South,170,1.0,2.0,95,0.00,,,0.00,weatherlink.com 1.10,2013-09-07 10:51:00,
2013-09-07 07:06:00,40.8,40.0,30.09,ESE,119,0.0,2.0,95,0.00,,,0.00,weatherlink.com 1.10,2013-09-07 11:06:00,
2013-09-07 07:21:00,41.8,41.0,30.08,ESE,119,0.0,0.0,95,0.00,,,0.00,weatherlink.com 1.10,2013-09-07 11:21:00,
2013-09-07 07:36:00,43.2,42.0,30.07,ESE,119,1.0,1.0,94,0.00,,,0.00,weatherlink.com 1.10,2013-09-07 11:36:00,
2013-09-07 07:51:00,44.6,43.0,30.07,ESE,115,1.0,2.0,92,0.00,,,0.00,weatherlink.com 1.10,2013-09-07 11:51:00,
2013-09-07 08:07:00,46.5,44.0,30.07,ESE,115,0.0,2.0,90,0.00,,,0.00,weatherlink.com 1.10,2013-09-07 12:07:00,
2013-09-07 08:22:00,48.5,45.0,30.06,ESE,115,0.0,1.0,87,0.00,,,0.00,weatherlink.com 1.10,2013-09-07 12:22:00,
2013-09-07 08:37:00,50.6,46.0,30.06,NNE,24,0.0,3.0,84,0.00,,,0.00,weatherlink.com 1.10,2013-09-07 12:37:00,
2013-09-07 08:52:00,52.0,47.0,30.06,NE,38,1.0,3.0,82,0.00,,,0.00,weatherlink.com 1.10,2013-09-07 12:52:00,
2013-09-07 09:07:00,53.8,47.0,30.06,NNW,345,1.0,2.0,79,0.00,,,0.00,weatherlink.com 1.10,2013-09-07 13:07:00,
2013-09-07 09:22:00,54.9,48.0,30.05,WNW,303,0.0,3.0,77,0.00,,,0.00,weatherlink.com 1.10,2013-09-07 13:22:00,
2013-09-07 09:37:00,58.4,50.0,30.05,North,5,1.0,4.0,73,0.00,,,0.00,weatherlink.com 1.10,2013-09-07 13:37:00,
2013-09-07 09:52:00,61.1,50.0,30.05,NW,321,0.0,3.0,66,0.00,,,0.00,weatherlink.com 1.10,2013-09-07 13:52:00,
2013-09-07 10:07:00,63.2,49.0,30.04,NNE,22,2.0,5.0,60,0.00,,,0.00,weatherlink.com 1.10,2013-09-07 14:07:00,
2013-09-07 10:22:00,65.5,46.0,30.04,SW,236,1.0,4.0,50,0.00,,,0.00,weatherlink.com 1.10,2013-09-07 14:22:00,
2013-09-07 10:37:00,67.5,45.0,30.03,NE,41,1.0,4.0,44,0.00,,,0.00,weatherlink.com 1.10,2013-09-07 14:37:00,
2013-09-07 10:52:00,68.9,45.0,30.02,NNE,22,0.0,3.0,43,0.00,,,0.00,weatherlink.com 1.10,2013-09-07 14:52:00,
2013-09-07 11:07:00,69.2,46.0,30.02,SW,220,1.0,4.0,43,0.00,,,0.00,weatherlink.com 1.10,2013-09-07 15:07:00,
2013-09-07 11:22:00,69.8,46.0,30.01,South,173,1.0,4.0,43,0.00,,,0.00,weatherlink.com 1.10,2013-09-07 15:22:00,
2013-09-07 11:37:00,71.2,48.0,30.01,SSE,165,1.0,3.0,44,0.00,,,0.00,weatherlink.com 1.10,2013-09-07 15:37:00,
2013-09-07 11:53:00,72.4,48.0,30.00,SE,134,2.0,7.0,42,0.00,,,0.00,weatherlink.com 1.10,2013-09-07 15:53:00,
2013-09-07 12:08:00,72.5,47.0,29.99,East,81,0.0,4.0,41,0.00,,,0.00,weatherlink.com 1.10,2013-09-07 16:08:00,
2013-09-07 12:23:00,74.3,47.0,29.99,ENE,57,1.0,5.0,38,0.00,,,0.00,weatherlink.com 1.10,2013-09-07 16:23:00,
2013-09-07 12:38:00,73.9,47.0,29.98,NW,313,2.0,6.0,38,0.00,,,0.00,weatherlink.com 1.10,2013-09-07 16:38:00,
2013-09-07 12:53:00,75.0,44.0,29.98,West,263,2.0,8.0,33,0.00,,,0.00,weatherlink.com 1.10,2013-09-07 16:53:00,
2013-09-07 13:08:00,74.5,42.0,29.97,North,355,2.0,8.0,31,0.00,,,0.00,weatherlink.com 1.10,2013-09-07 17:08:00,
2013-09-07 13:23:00,73.8,39.0,29.97,North,355,4.0,10.0,28,0.00,,,0.00,weatherlink.com 1.10,2013-09-07 17:23:00,
2013-09-07 13:38:00,74.5,41.0,29.96,ESE,103,1.0,6.0,30,0.00,,,0.00,weatherlink.com 1.10,2013-09-07 17:38:00,
2013-09-07 13:53:00,74.7,41.0,29.96,WNW,288,1.0,9.0,30,0.00,,,0.00,weatherlink.com 1.10,2013-09-07 17:53:00,
2013-09-07 14:08:00,75.1,42.0,29.95,NNW,338,2.0,6.0,31,0.00,,,0.00,weatherlink.com 1.10,2013-09-07 18:08:00,
2013-09-07 14:23:00,75.7,45.0,29.93,SSW,200,12.0,12.0,33,0.00,,,0.00,weatherlink.com 1.10,2013-09-07 18:23:00,
2013-09-07 14:38:00,75.4,44.0,29.93,SW,218,2.0,7.0,33,0.00,,,0.00,weatherlink.com 1.10,2013-09-07 18:38:00,
2013-09-07 14:53:00,74.4,46.0,29.93,West,281,2.0,3.0,36,0.00,,,0.00,weatherlink.com 1.10,2013-09-07 18:53:00,
2013-09-07 15:08:00,74.5,48.0,29.93,WNW,292,1.0,5.0,39,0.00,,,0.00,weatherlink.com 1.10,2013-09-07 19:08:00,
2013-09-07 15:23:00,73.9,49.0,29.93,North,11,0.0,5.0,41,0.00,,,0.00,weatherlink.com 1.10,2013-09-07 19:23:00,
2013-09-07 15:38:00,73.3,49.0,29.93,North,5,3.0,5.0,42,0.00,,,0.00,weatherlink.com 1.10,2013-09-07 19:38:00,
2013-09-07 15:53:00,72.0,48.0,29.92,NNW,344,2.0,8.0,43,0.00,,,0.00,weatherlink.com 1.10,2013-09-07 19:53:00,
2013-09-07 16:08:00,71.2,49.0,29.92,NW,318,1.0,6.0,46,0.00,,,0.00,weatherlink.com 1.10,2013-09-07 20:08:00,
2013-09-07 16:23:00,70.1,50.0,29.92,North,355,0.0,3.0,50,0.00,,,0.00,weatherlink.com 1.10,2013-09-07 20:23:00,
2013-09-07 16:38:00,69.3,52.0,29.92,NNW,337,0.0,3.0,54,0.00,,,0.00,weatherlink.com 1.10,2013-09-07 20:38:00,
2013-09-07 16:53:00,68.9,54.0,29.92,NNW,337,1.0,2.0,60,0.00,,,0.00,weatherlink.com 1.10,2013-09-07 20:53:00,
2013-09-07 17:08:00,68.6,58.0,29.91,NNW,337,0.0,0.0,69,0.00,,,0.00,weatherlink.com 1.10,2013-09-07 21:08:00,
2013-09-07 17:23:00,67.7,57.0,29.91,NNW,337,0.0,2.0,69,0.00,,,0.00,weatherlink.com 1.10,2013-09-07 21:23:00,
2013-09-07 17:38:00,67.4,57.0,29.92,NNW,337,0.0,1.0,70,0.00,,,0.00,weatherlink.com 1.10,2013-09-07 21:38:00,
2013-09-07 17:53:00,66.6,58.0,29.91,ENE,58,0.0,2.0,75,0.00,,,0.00,weatherlink.com 1.10,2013-09-07 21:53:00,
2013-09-07 18:08:00,66.1,58.0,29.91,East,90,1.0,2.0,76,0.00,,,0.00,weatherlink.com 1.10,2013-09-07 22:08:00,
2013-09-07 18:23:00,64.9,58.0,29.91,East,90,0.0,1.0,79,0.00,,,0.00,weatherlink.com 1.10,2013-09-07 22:23:00,
2013-09-07 18:38:00,64.3,57.0,29.91,East,90,0.0,1.0,78,0.00,,,0.00,weatherlink.com 1.10,2013-09-07 22:38:00,
2013-09-07 18:53:00,63.4,58.0,29.91,East,90,0.0,1.0,81,0.00,,,0.00,weatherlink.com 1.10,2013-09-07 22:53:00,
2013-09-07 19:08:00,62.5,57.0,29.91,East,90,0.0,1.0,83,0.00,,,0.00,weatherlink.com 1.10,2013-09-07 23:08:00,
2013-09-07 19:23:00,61.4,57.0,29.90,East,90,0.0,1.0,85,0.00,,,0.00,weatherlink.com 1.10,2013-09-07 23:23:00,
2013-09-07 19:38:00,60.3,57.0,29.90,East,90,0.0,1.0,87,0.01,,,0.01,weatherlink.com 1.10,2013-09-07 23:38:00,
2013-09-07 19:53:00,59.5,57.0,29.90,East,90,0.0,2.0,90,0.01,,,0.01,weatherlink.com 1.10,2013-09-07 23:53:00,
2013-09-07 20:08:00,59.3,57.0,29.91,East,90,0.0,1.0,91,0.01,,,0.01,weatherlink.com 1.10,2013-09-08 00:08:00,
2013-09-07 20:23:00,58.7,56.0,29.90,East,90,1.0,3.0,90,0.01,,,0.01,weatherlink.com 1.10,2013-09-08 00:23:00,
2013-09-07 20:38:00,58.5,56.0,29.91,ESE,105,0.0,2.0,92,0.00,,,0.01,weatherlink.com 1.10,2013-09-08 00:38:00,
2013-09-07 20:53:00,58.3,56.0,29.91,ESE,105,0.0,1.0,91,0.00,,,0.01,weatherlink.com 1.10,2013-09-08 00:53:00,
2013-09-07 21:08:00,58.1,56.0,29.90,ESE,105,0.0,3.0,92,0.01,,,0.02,weatherlink.com 1.10,2013-09-08 01:08:00,
2013-09-07 21:23:00,57.9,56.0,29.89,ESE,105,2.0,3.0,92,0.01,,,0.02,weatherlink.com 1.10,2013-09-08 01:23:00,
2013-09-07 21:39:00,57.6,55.0,29.89,SE,134,2.0,4.0,92,0.01,,,0.02,weatherlink.com 1.10,2013-09-08 01:39:00,
2013-09-07 21:54:00,57.3,55.0,29.89,ESE,109,1.0,4.0,93,0.01,,,0.02,weatherlink.com 1.10,2013-09-08 01:54:00,
2013-09-07 22:09:00,57.3,55.0,29.88,ESE,119,2.0,3.0,93,0.00,,,0.02,weatherlink.com 1.10,2013-09-08 02:09:00,
2013-09-07 22:24:00,57.1,55.0,29.88,West,281,0.0,3.0,93,0.00,,,0.02,weatherlink.com 1.10,2013-09-08 02:24:00,
2013-09-07 22:39:00,57.0,55.0,29.88,North,360,0.0,2.0,93,0.00,,,0.02,weatherlink.com 1.10,2013-09-08 02:39:00,
2013-09-07 22:54:00,56.7,55.0,29.88,ESE,117,0.0,2.0,94,0.00,,,0.02,weatherlink.com 1.10,2013-09-08 02:54:00,
2013-09-07 23:09:00,56.7,55.0,29.87,West,261,2.0,2.0,94,0.00,,,0.02,weatherlink.com 1.10,2013-09-08 03:09:00,
2013-09-07 23:24:00,56.4,55.0,29.87,SSW,210,0.0,1.0,94,0.00,,,0.02,weatherlink.com 1.10,2013-09-08 03:24:00,
2013-09-07 23:39:00,56.5,55.0,29.86,ESE,113,0.0,2.0,94,0.00,,,0.02,weatherlink.com 1.10,2013-09-08 03:39:00,
2013-09-07 23:54:00,56.3,55.0,29.86,ENE,60,0.0,2.0,94,0.00,,,0.02,weatherlink.com 1.10,2013-09-08 03:54:00,